| time (UTC) | temp F | wind direction | speed MPH | gust MPH | rain 1hr in | rain 24hr in | rain mn in | humidity % | barometer mb |
| 20260904035525 | 75 | 0 | 0.0 | 3.0 | 0.00 | 0.49 | 0.49 | 96 | 1014.1 |
| 20260904035022 | 75 | 101 | 1.0 | 3.0 | 0.00 | 0.49 | 0.49 | 96 | 1013.9 |
| 20260904034541 | 75 | 99 | 1.0 | 3.0 | 0.00 | 0.49 | 0.49 | 96 | 1014.0 |
| 20260904034019 | 75 | 109 | 1.0 | 3.0 | 0.00 | 0.49 | 0.49 | 96 | 1014.1 |
| 20260904033520 | 76 | 102 | 0.0 | 3.0 | 0.00 | 0.49 | 0.49 | 96 | 1014.1 |
| 20260904033044 | 76 | 0 | 0.0 | 0.0 | 0.00 | 0.49 | 0.49 | 96 | 1014.1 |
| 20260904032523 | 76 | 0 | 0.0 | 0.0 | 0.00 | 0.49 | 0.49 | 96 | 1014.1 |
| 20260904032021 | 76 | 0 | 0.0 | 1.0 | 0.00 | 0.49 | 0.49 | 96 | 1014.1 |
| 20260904031552 | 76 | 0 | 0.0 | 2.0 | 0.00 | 0.49 | 0.49 | 96 | 1014.1 |
| 20260904031024 | 76 | 0 | 0.0 | 2.0 | 0.00 | 0.49 | 0.49 | 96 | 1014.2 |
| 20260904030524 | 76 | 0 | 0.0 | 2.0 | 0.00 | 0.49 | 0.49 | 96 | 1014.2 |
| 20260904030043 | 76 | 0 | 0.0 | 3.0 | 0.00 | 0.49 | 0.49 | 96 | 1014.1 |
| 20260904025524 | 76 | 118 | 1.0 | 3.0 | 0.00 | 0.49 | 0.49 | 96 | 1014.1 |
| 20260904025022 | 76 | 136 | 1.0 | 3.0 | 0.00 | 0.49 | 0.49 | 96 | 1014.1 |
| 20260904024554 | 76 | 101 | 1.0 | 3.0 | 0.00 | 0.49 | 0.49 | 96 | 1014.1 |
| 20260904024018 | 76 | 107 | 1.0 | 5.0 | 0.00 | 0.49 | 0.49 | 96 | 1014.1 |
| 20260904023524 | 76 | 128 | 2.0 | 5.0 | 0.01 | 0.49 | 0.49 | 96 | 1014.0 |
| 20260904023049 | 76 | 121 | 2.0 | 4.0 | 0.01 | 0.49 | 0.49 | 96 | 1014.0 |
| 20260904022525 | 76 | 96 | 2.0 | 5.0 | 0.01 | 0.49 | 0.49 | 96 | 1013.9 |
| 20260904022024 | 76 | 0 | 1.0 | 5.0 | 0.01 | 0.49 | 0.49 | 96 | 1013.9 |
| 20260904021547 | 76 | 119 | 2.0 | 5.0 | 0.01 | 0.49 | 0.49 | 96 | 1013.8 |
| 20260904021024 | 76 | 115 | 1.0 | 3.0 | 0.01 | 0.49 | 0.49 | 96 | 1013.9 |
| 20260904020524 | 76 | 74 | 1.0 | 3.0 | 0.01 | 0.49 | 0.49 | 96 | 1013.8 |
| 20260904020046 | 76 | 82 | 1.0 | 3.0 | 0.01 | 0.49 | 0.49 | 96 | 1013.7 |
| 20260904015524 | 76 | 108 | 1.0 | 3.0 | 0.02 | 0.52 | 0.49 | 96 | 1013.8 |
| 20260904015022 | 76 | 0 | 1.0 | 4.0 | 0.02 | 0.52 | 0.49 | 96 | 1013.7 |
| 20260904014557 | 76 | 109 | 1.0 | 4.0 | 0.03 | 0.52 | 0.49 | 96 | 1013.7 |
| 20260904014025 | 76 | 108 | 1.0 | 3.0 | 0.03 | 0.52 | 0.49 | 96 | 1013.7 |
| 20260904013525 | 76 | 120 | 0.0 | 3.0 | 0.03 | 0.51 | 0.48 | 96 | 1013.7 |
| 20260904013048 | 76 | 76 | 1.0 | 3.0 | 0.03 | 0.51 | 0.48 | 96 | 1013.7 |
| 20260904012524 | 76 | 69 | 1.0 | 3.0 | 0.03 | 0.51 | 0.48 | 96 | 1013.7 |
| 20260904012024 | 76 | 91 | 1.0 | 4.0 | 0.03 | 0.51 | 0.48 | 96 | 1013.6 |
| 20260904011546 | 76 | 65 | 2.0 | 4.0 | 0.03 | 0.51 | 0.48 | 95 | 1013.4 |
| 20260904011024 | 76 | 93 | 2.0 | 3.0 | 0.04 | 0.51 | 0.48 | 95 | 1013.4 |
| 20260904010524 | 76 | 98 | 1.0 | 3.0 | 0.05 | 0.51 | 0.48 | 95 | 1013.4 |
| 20260904010050 | 76 | 98 | 1.0 | 3.0 | 0.06 | 0.51 | 0.48 | 95 | 1013.4 |
| 20260904005523 | 76 | 79 | 1.0 | 3.0 | 0.11 | 0.50 | 0.47 | 95 | 1013.3 |
| 20260904005024 | 76 | 0 | 0.0 | 2.0 | 0.21 | 0.49 | 0.46 | 95 | 1013.3 |
| 20260904004544 | 77 | 0 | 0.0 | 1.0 | 0.30 | 0.49 | 0.46 | 95 | 1013.4 |
| 20260904004023 | 76 | 0 | 0.0 | 1.0 | 0.45 | 0.49 | 0.46 | 95 | 1013.4 |
| 20260904003520 | 76 | 0 | 0.0 | 3.0 | 0.44 | 0.48 | 0.45 | 95 | 1013.4 |
| 20260904003043 | 76 | 89 | 0.0 | 4.0 | 0.44 | 0.48 | 0.45 | 95 | 1013.3 |
| 20260904002524 | 76 | 109 | 1.0 | 4.0 | 0.44 | 0.48 | 0.45 | 95 | 1013.4 |
| 20260904002026 | 76 | 123 | 0.0 | 7.0 | 0.44 | 0.48 | 0.45 | 95 | 1013.5 |
| 20260904001551 | 76 | 100 | 1.0 | 7.0 | 0.43 | 0.47 | 0.44 | 94 | 1013.5 |
| 20260904001024 | 76 | 116 | 2.0 | 7.0 | 0.43 | 0.47 | 0.44 | 94 | 1013.6 |
| 20260904000524 | 76 | 155 | 2.0 | 10.0 | 0.42 | 0.46 | 0.43 | 94 | 1013.6 |
| 20260904000052 | 76 | 202 | 4.0 | 10.0 | 0.40 | 0.44 | 0.41 | 93 | 1013.6 |
| 20260903235526 | 77 | 142 | 3.0 | 10.0 | 0.34 | 0.38 | 0.35 | 92 | 1013.7 |
| 20260903235024 | 77 | 167 | 1.0 | 10.0 | 0.23 | 0.27 | 0.24 | 91 | 1013.8 |
| 20260903234541 | 79 | 301 | 2.0 | 18.0 | 0.13 | 0.17 | 0.14 | 89 | 1013.8 |
| 20260903234025 | 81 | 104 | 9.0 | 18.0 | 0.00 | 0.04 | 0.01 | 85 | 1013.8 |
| 20260903233529 | 82 | 132 | 6.0 | 13.0 | 0.00 | 0.04 | 0.01 | 85 | 1013.7 |
| 20260903233041 | 83 | 80 | 3.0 | 8.0 | 0.00 | 0.04 | 0.01 | 87 | 1013.3 |
| 20260903232524 | 83 | 112 | 3.0 | 9.0 | 0.00 | 0.04 | 0.01 | 86 | 1013.2 |
| 20260903232024 | 83 | 78 | 3.0 | 10.0 | 0.00 | 0.04 | 0.01 | 85 | 1013.1 |
| 20260903231548 | 83 | 84 | 4.0 | 10.0 | 0.00 | 0.04 | 0.01 | 85 | 1013.0 |
| 20260903231024 | 83 | 83 | 5.0 | 9.0 | 0.00 | 0.04 | 0.01 | 85 | 1013.0 |
| 20260903230521 | 84 | 80 | 4.0 | 9.0 | 0.00 | 0.04 | 0.01 | 85 | 1013.1 |
| 20260903230047 | 84 | 115 | 3.0 | 7.0 | 0.00 | 0.04 | 0.01 | 84 | 1013.1 |
| 20260903225524 | 84 | 67 | 4.0 | 8.0 | 0.00 | 0.04 | 0.01 | 83 | 1013.0 |
| 20260903225024 | 84 | 61 | 4.0 | 8.0 | 0.00 | 0.04 | 0.01 | 82 | 1012.8 |
| 20260903224540 | 85 | 114 | 3.0 | 8.0 | 0.00 | 0.04 | 0.01 | 82 | 1012.8 |
| 20260903224024 | 85 | 83 | 3.0 | 7.0 | 0.00 | 0.04 | 0.01 | 80 | 1012.5 |
| 20260903223524 | 85 | 78 | 2.0 | 4.0 | 0.00 | 0.04 | 0.01 | 79 | 1012.7 |
| 20260903223043 | 86 | 82 | 1.0 | 4.0 | 0.00 | 0.04 | 0.01 | 79 | 1012.7 |
| 20260903222522 | 86 | 74 | 1.0 | 4.0 | 0.00 | 0.04 | 0.01 | 78 | 1012.7 |
| 20260903222024 | 86 | 55 | 2.0 | 4.0 | 0.00 | 0.04 | 0.01 | 77 | 1012.5 |
| 20260903221542 | 86 | 64 | 1.0 | 4.0 | 0.00 | 0.04 | 0.01 | 79 | 1012.4 |
| 20260903221018 | 86 | 67 | 1.0 | 4.0 | 0.00 | 0.04 | 0.01 | 77 | 1012.4 |
| 20260903220524 | 86 | 59 | 1.0 | 4.0 | 0.00 | 0.04 | 0.01 | 77 | 1012.4 |
| 20260903220051 | 87 | 71 | 2.0 | 4.0 | 0.00 | 0.04 | 0.01 | 76 | 1012.4 |
| 20260903215525 | 86 | 77 | 2.0 | 5.0 | 0.00 | 0.04 | 0.01 | 77 | 1012.2 |
| 20260903215025 | 86 | 82 | 2.0 | 5.0 | 0.00 | 0.04 | 0.01 | 79 | 1012.4 |
| 20260903214604 | 86 | 59 | 2.0 | 6.0 | 0.00 | 0.04 | 0.01 | 79 | 1012.4 |
| 20260903214024 | 86 | 69 | 2.0 | 8.0 | 0.00 | 0.04 | 0.01 | 79 | 1012.3 |
| 20260903213523 | 87 | 63 | 3.0 | 8.0 | 0.00 | 0.04 | 0.01 | 79 | 1012.1 |
| 20260903213047 | 87 | 56 | 3.0 | 8.0 | 0.00 | 0.04 | 0.01 | 79 | 1011.8 |
| 20260903212528 | 86 | 112 | 4.0 | 8.0 | 0.00 | 0.04 | 0.01 | 78 | 1011.8 |
| 20260903212024 | 87 | 53 | 3.0 | 8.0 | 0.00 | 0.04 | 0.01 | 78 | 1011.8 |
| 20260903211542 | 87 | 76 | 4.0 | 8.0 | 0.00 | 0.04 | 0.01 | 76 | 1011.8 |
| 20260903211025 | 86 | 38 | 3.0 | 7.0 | 0.00 | 0.04 | 0.01 | 79 | 1011.8 |
| 20260903210525 | 87 | 88 | 2.0 | 6.0 | 0.00 | 0.04 | 0.01 | 79 | 1011.6 |
| 20260903210048 | 86 | 96 | 1.0 | 6.0 | 0.00 | 0.04 | 0.01 | 79 | 1011.7 |
| 20260903205523 | 86 | 99 | 3.0 | 5.0 | 0.00 | 0.04 | 0.01 | 79 | 1011.8 |
| 20260903205022 | 87 | 72 | 2.0 | 4.0 | 0.00 | 0.04 | 0.01 | 81 | 1011.9 |
| 20260903204542 | 87 | 59 | 2.0 | 6.0 | 0.00 | 0.04 | 0.01 | 81 | 1012.0 |
| 20260903204023 | 87 | 74 | 1.0 | 7.0 | 0.00 | 0.04 | 0.01 | 82 | 1012.1 |
| 20260903203526 | 87 | 0 | 2.0 | 7.0 | 0.00 | 0.04 | 0.01 | 82 | 1011.9 |
| 20260903203042 | 87 | 121 | 2.0 | 5.0 | 0.00 | 0.04 | 0.01 | 80 | 1011.9 |
| 20260903202526 | 86 | 98 | 2.0 | 4.0 | 0.00 | 0.04 | 0.01 | 85 | 1012.1 |
| 20260903202023 | 85 | 107 | 2.0 | 6.0 | 0.00 | 0.04 | 0.01 | 83 | 1012.3 |
| 20260903201558 | 85 | 105 | 3.0 | 6.0 | 0.00 | 0.04 | 0.01 | 84 | 1012.4 |
| 20260903201027 | 85 | 101 | 2.0 | 5.0 | 0.00 | 0.04 | 0.01 | 84 | 1012.5 |
| 20260903200526 | 84 | 113 | 2.0 | 8.0 | 0.00 | 0.04 | 0.01 | 85 | 1012.4 |
| 20260903200051 | 84 | 110 | 3.0 | 8.0 | 0.00 | 0.04 | 0.01 | 86 | 1012.6 |
| 20260903195523 | 84 | 109 | 4.0 | 7.0 | 0.00 | 0.04 | 0.01 | 85 | 1012.7 |
| 20260903195029 | 84 | 65 | 3.0 | 7.0 | 0.00 | 0.04 | 0.01 | 85 | 1012.7 |
| 20260903194542 | 84 | 123 | 2.0 | 8.0 | 0.00 | 0.04 | 0.01 | 87 | 1012.8 |
| 20260903194023 | 83 | 55 | 4.0 | 9.0 | 0.00 | 0.04 | 0.01 | 88 | 1013.0 |
| 20260903193525 | 83 | 78 | 5.0 | 9.0 | 0.00 | 0.04 | 0.01 | 87 | 1013.1 |
| 20260903193049 | 83 | 91 | 3.0 | 7.0 | 0.00 | 0.04 | 0.01 | 90 | 1013.3 |
| 20260903192530 | 83 | 82 | 3.0 | 7.0 | 0.00 | 0.04 | 0.01 | 90 | 1013.3 |
| 20260903192025 | 83 | 40 | 3.0 | 7.0 | 0.00 | 0.04 | 0.01 | 89 | 1013.6 |
| 20260903191549 | 82 | 95 | 3.0 | 7.0 | 0.00 | 0.04 | 0.01 | 89 | 1013.6 |
| 20260903191024 | 83 | 83 | 2.0 | 7.0 | 0.00 | 0.04 | 0.01 | 89 | 1013.6 |
| 20260903190524 | 82 | 100 | 3.0 | 6.0 | 0.00 | 0.04 | 0.01 | 92 | 1013.7 |
| 20260903190044 | 81 | 83 | 2.0 | 6.0 | 0.00 | 0.04 | 0.01 | 92 | 1013.8 |
| 20260903185522 | 80 | 94 | 2.0 | 7.0 | 0.00 | 0.04 | 0.01 | 92 | 1013.7 |
| 20260903185024 | 80 | 104 | 3.0 | 7.0 | 0.00 | 0.04 | 0.01 | 91 | 1013.7 |
| 20260903184551 | 80 | 157 | 3.0 | 8.0 | 0.00 | 0.04 | 0.01 | 90 | 1013.7 |
| 20260903184027 | 80 | 115 | 2.0 | 8.0 | 0.00 | 0.04 | 0.01 | 90 | 1013.6 |
| 20260903183524 | 80 | 124 | 3.0 | 10.0 | 0.00 | 0.04 | 0.01 | 89 | 1013.6 |
| 20260903183050 | 80 | 137 | 2.0 | 10.0 | 0.00 | 0.04 | 0.01 | 88 | 1013.6 |
| 20260903182524 | 81 | 154 | 4.0 | 10.0 | 0.00 | 0.04 | 0.01 | 88 | 1013.7 |
| 20260903182025 | 81 | 107 | 3.0 | 6.0 | 0.00 | 0.04 | 0.01 | 89 | 1013.6 |
| 20260903181547 | 81 | 92 | 2.0 | 7.0 | 0.00 | 0.04 | 0.01 | 89 | 1013.6 |
| 20260903181026 | 81 | 79 | 2.0 | 7.0 | 0.00 | 0.04 | 0.01 | 88 | 1013.6 |
| 20260903180529 | 81 | 80 | 4.0 | 7.0 | 0.00 | 0.04 | 0.01 | 88 | 1013.5 |
| 20260903180047 | 81 | 74 | 2.0 | 5.0 | 0.00 | 0.04 | 0.01 | 87 | 1013.6 |
| 20260903175520 | 82 | 80 | 2.0 | 8.0 | 0.00 | 0.04 | 0.01 | 87 | 1013.7 |
| 20260903175023 | 81 | 96 | 2.0 | 8.0 | 0.00 | 0.04 | 0.01 | 87 | 1013.8 |
| 20260903174542 | 82 | 98 | 2.0 | 8.0 | 0.00 | 0.04 | 0.01 | 87 | 1014.0 |
| 20260903174022 | 82 | 121 | 3.0 | 8.0 | 0.00 | 0.04 | 0.01 | 86 | 1014.2 |
| 20260903173525 | 82 | 119 | 4.0 | 8.0 | 0.00 | 0.04 | 0.01 | 86 | 1014.3 |
| 20260903173043 | 83 | 109 | 3.0 | 6.0 | 0.00 | 0.04 | 0.01 | 87 | 1014.4 |
| 20260903172528 | 83 | 84 | 3.0 | 6.0 | 0.00 | 0.04 | 0.01 | 86 | 1014.4 |
| 20260903172026 | 83 | 80 | 2.0 | 8.0 | 0.00 | 0.04 | 0.01 | 86 | 1014.4 |
| 20260903171545 | 83 | 80 | 3.0 | 8.0 | 0.00 | 0.04 | 0.01 | 86 | 1014.3 |
| 20260903171025 | 83 | 107 | 3.0 | 8.0 | 0.00 | 0.04 | 0.01 | 86 | 1014.5 |
| 20260903170524 | 84 | 85 | 5.0 | 9.0 | 0.00 | 0.04 | 0.01 | 85 | 1014.6 |
| 20260903170052 | 84 | 90 | 5.0 | 9.0 | 0.00 | 0.04 | 0.01 | 85 | 1014.6 |
| 20260903165526 | 84 | 77 | 5.0 | 11.0 | 0.00 | 0.04 | 0.01 | 83 | 1014.5 |
| 20260903165025 | 84 | 65 | 5.0 | 11.0 | 0.00 | 0.04 | 0.01 | 84 | 1014.5 |
| 20260903164549 | 85 | 64 | 4.0 | 9.0 | 0.00 | 0.04 | 0.01 | 84 | 1014.6 |
| 20260903164025 | 85 | 63 | 5.0 | 10.0 | 0.00 | 0.04 | 0.01 | 83 | 1014.6 |
| 20260903163527 | 85 | 76 | 4.0 | 10.0 | 0.00 | 0.04 | 0.01 | 83 | 1014.6 |
| 20260903163101 | 86 | 76 | 4.0 | 11.0 | 0.00 | 0.04 | 0.01 | 80 | 1014.7 |
| 20260903162523 | 86 | 32 | 4.0 | 11.0 | 0.00 | 0.04 | 0.01 | 83 | 1014.7 |
| 20260903162025 | 85 | 62 | 7.0 | 11.0 | 0.00 | 0.04 | 0.01 | 82 | 1014.6 |
| 20260903161543 | 85 | 89 | 6.0 | 10.0 | 0.00 | 0.04 | 0.01 | 79 | 1014.7 |
| 20260903161023 | 85 | 80 | 3.0 | 10.0 | 0.00 | 0.04 | 0.01 | 81 | 1014.7 |
| 20260903160526 | 87 | 76 | 2.0 | 10.0 | 0.00 | 0.04 | 0.01 | 81 | 1014.6 |
| 20260903160048 | 87 | 114 | 3.0 | 9.0 | 0.00 | 0.04 | 0.01 | 82 | 1014.6 |
| 20260903155525 | 85 | 101 | 5.0 | 9.0 | 0.00 | 0.04 | 0.01 | 84 | 1014.7 |
| 20260903155026 | 84 | 55 | 4.0 | 9.0 | 0.00 | 0.04 | 0.01 | 85 | 1014.7 |
| 20260903154550 | 84 | 63 | 4.0 | 9.0 | 0.00 | 0.04 | 0.01 | 84 | 1014.8 |
| 20260903154027 | 83 | 50 | 4.0 | 9.0 | 0.00 | 0.04 | 0.01 | 85 | 1014.9 |
| 20260903153525 | 84 | 49 | 3.0 | 8.0 | 0.00 | 0.04 | 0.01 | 86 | 1014.8 |
| 20260903153058 | 84 | 60 | 4.0 | 8.0 | 0.00 | 0.04 | 0.01 | 85 | 1014.8 |
| 20260903152523 | 84 | 61 | 4.0 | 8.0 | 0.00 | 0.04 | 0.01 | 85 | 1014.9 |
| 20260903152028 | 84 | 29 | 2.0 | 8.0 | 0.00 | 0.04 | 0.01 | 87 | 1014.9 |
| 20260903151542 | 83 | 134 | 4.0 | 8.0 | 0.00 | 0.04 | 0.01 | 87 | 1014.9 |
| 20260903151025 | 83 | 86 | 4.0 | 10.0 | 0.00 | 0.04 | 0.01 | 88 | 1014.9 |
| 20260903150525 | 83 | 103 | 5.0 | 10.0 | 0.00 | 0.04 | 0.01 | 88 | 1014.7 |
| 20260903150100 | 83 | 48 | 4.0 | 9.0 | 0.00 | 0.04 | 0.01 | 88 | 1014.8 |
| 20260903145526 | 84 | 73 | 4.0 | 9.0 | 0.00 | 0.04 | 0.01 | 88 | 1014.9 |
| 20260903145026 | 83 | 43 | 3.0 | 9.0 | 0.00 | 0.04 | 0.01 | 89 | 1014.9 |
| 20260903144544 | 83 | 86 | 3.0 | 8.0 | 0.00 | 0.04 | 0.01 | 90 | 1014.9 |
| 20260903144023 | 82 | 86 | 4.0 | 10.0 | 0.00 | 0.04 | 0.01 | 90 | 1014.9 |
| 20260903143525 | 82 | 62 | 4.0 | 10.0 | 0.00 | 0.04 | 0.01 | 91 | 1015.0 |
| 20260903143058 | 81 | 90 | 5.0 | 9.0 | 0.00 | 0.04 | 0.01 | 91 | 1014.9 |
| 20260903142525 | 81 | 26 | 3.0 | 9.0 | 0.00 | 0.04 | 0.01 | 91 | 1014.9 |
| 20260903142025 | 81 | 76 | 3.0 | 7.0 | 0.00 | 0.04 | 0.01 | 91 | 1014.9 |
| 20260903141550 | 81 | 46 | 3.0 | 7.0 | 0.00 | 0.04 | 0.01 | 91 | 1014.7 |
| 20260903141024 | 81 | 38 | 3.0 | 5.0 | 0.00 | 0.04 | 0.01 | 91 | 1014.7 |
| 20260903140525 | 82 | 43 | 2.0 | 7.0 | 0.00 | 0.04 | 0.01 | 91 | 1014.7 |
| 20260903140051 | 82 | 81 | 3.0 | 8.0 | 0.00 | 0.04 | 0.01 | 91 | 1014.7 |
| 20260903135526 | 82 | 70 | 3.0 | 9.0 | 0.00 | 0.04 | 0.01 | 92 | 1014.7 |
| 20260903135023 | 81 | 68 | 5.0 | 9.0 | 0.00 | 0.04 | 0.01 | 91 | 1014.6 |
| 20260903134545 | 82 | 57 | 4.0 | 8.0 | 0.00 | 0.04 | 0.01 | 91 | 1014.6 |
| 20260903134020 | 81 | 52 | 4.0 | 8.0 | 0.00 | 0.04 | 0.01 | 92 | 1014.5 |
| 20260903133524 | 81 | 52 | 4.0 | 8.0 | 0.00 | 0.04 | 0.01 | 91 | 1014.5 |
| 20260903133042 | 82 | 72 | 3.0 | 5.0 | 0.00 | 0.04 | 0.01 | 92 | 1014.5 |
| 20260903132522 | 81 | 0 | 1.0 | 4.0 | 0.00 | 0.04 | 0.01 | 93 | 1014.4 |
| 20260903132024 | 81 | 61 | 1.0 | 4.0 | 0.00 | 0.04 | 0.01 | 94 | 1014.4 |
| 20260903131543 | 81 | 0 | 1.0 | 5.0 | 0.00 | 0.04 | 0.01 | 95 | 1014.4 |
| 20260903131030 | 80 | 58 | 2.0 | 5.0 | 0.00 | 0.04 | 0.01 | 95 | 1014.4 |
| 20260903130528 | 80 | 40 | 2.0 | 6.0 | 0.00 | 0.04 | 0.01 | 96 | 1014.4 |
| 20260903130048 | 79 | 43 | 3.0 | 6.0 | 0.00 | 0.04 | 0.01 | 96 | 1014.3 |
| 20260903125521 | 79 | 61 | 3.0 | 6.0 | 0.00 | 0.04 | 0.01 | 97 | 1014.4 |
| 20260903125024 | 78 | 50 | 3.0 | 6.0 | 0.00 | 0.04 | 0.01 | 97 | 1014.5 |
| 20260903124543 | 79 | 49 | 2.0 | 6.0 | 0.00 | 0.04 | 0.01 | 97 | 1014.6 |
| 20260903124025 | 78 | 42 | 2.0 | 4.0 | 0.00 | 0.04 | 0.01 | 97 | 1014.6 |
| 20260903123521 | 78 | 59 | 2.0 | 4.0 | 0.00 | 0.04 | 0.01 | 97 | 1014.5 |
| 20260903123042 | 78 | 53 | 1.0 | 3.0 | 0.00 | 0.04 | 0.01 | 97 | 1014.4 |
| 20260903122518 | 77 | 49 | 1.0 | 3.0 | 0.00 | 0.04 | 0.01 | 97 | 1014.5 |
| 20260903122024 | 77 | 43 | 0.0 | 2.0 | 0.00 | 0.04 | 0.01 | 97 | 1014.3 |
| 20260903121548 | 77 | 0 | 0.0 | 2.0 | 0.00 | 0.04 | 0.01 | 97 | 1014.2 |
| 20260903121025 | 77 | 0 | 0.0 | 2.0 | 0.00 | 0.04 | 0.01 | 97 | 1014.2 |
| 20260903120521 | 77 | 0 | 0.0 | 5.0 | 0.00 | 0.04 | 0.01 | 97 | 1014.1 |
| 20260903120051 | 77 | 0 | 0.0 | 5.0 | 0.00 | 0.04 | 0.01 | 97 | 1014.1 |
| 20260903115524 | 77 | 40 | 1.0 | 5.0 | 0.00 | 0.04 | 0.01 | 97 | 1014.1 |
| 20260903115024 | 76 | 62 | 3.0 | 5.0 | 0.00 | 0.04 | 0.01 | 97 | 1014.0 |
| 20260903114541 | 76 | 69 | 2.0 | 5.0 | 0.00 | 0.04 | 0.01 | 97 | 1013.9 |
| 20260903114026 | 76 | 56 | 2.0 | 5.0 | 0.00 | 0.04 | 0.01 | 97 | 1013.9 |
| 20260903113522 | 76 | 43 | 1.0 | 5.0 | 0.00 | 0.04 | 0.01 | 97 | 1013.8 |
| 20260903113040 | 76 | 44 | 1.0 | 4.0 | 0.00 | 0.04 | 0.01 | 97 | 1013.9 |
| 20260903112524 | 76 | 43 | 1.0 | 5.0 | 0.00 | 0.04 | 0.01 | 97 | 1013.8 |
| 20260903112021 | 76 | 0 | 1.0 | 5.0 | 0.00 | 0.04 | 0.01 | 97 | 1013.6 |
| 20260903111555 | 76 | 54 | 1.0 | 3.0 | 0.00 | 0.04 | 0.01 | 97 | 1013.5 |
| 20260903111027 | 76 | 0 | 0.0 | 3.0 | 0.00 | 0.04 | 0.01 | 97 | 1013.4 |
| 20260903110520 | 76 | 0 | 0.0 | 3.0 | 0.00 | 0.04 | 0.01 | 97 | 1013.5 |
| 20260903110043 | 76 | 0 | 0.0 | 2.0 | 0.00 | 0.04 | 0.01 | 97 | 1013.5 |
| 20260903105521 | 76 | 0 | 0.0 | 2.0 | 0.00 | 0.04 | 0.01 | 97 | 1013.4 |
| 20260903105024 | 76 | 0 | 0.0 | 0.0 | 0.00 | 0.04 | 0.01 | 97 | 1013.2 |
| 20260903104601 | 76 | 0 | 0.0 | 0.0 | 0.00 | 0.04 | 0.01 | 97 | 1013.1 |
| 20260903104023 | 76 | 0 | 0.0 | 2.0 | 0.00 | 0.04 | 0.01 | 97 | 1013.3 |
| 20260903103524 | 76 | 0 | 0.0 | 2.0 | 0.00 | 0.04 | 0.01 | 97 | 1013.1 |
| 20260903103055 | 76 | 82 | 1.0 | 2.0 | 0.00 | 0.04 | 0.01 | 97 | 1013.1 |
| 20260903102519 | 76 | 0 | 0.0 | 3.0 | 0.00 | 0.04 | 0.01 | 97 | 1013.0 |
| 20260903102025 | 76 | 65 | 1.0 | 3.0 | 0.00 | 0.04 | 0.01 | 97 | 1013.0 |
| 20260903101549 | 76 | 42 | 0.0 | 2.0 | 0.00 | 0.04 | 0.01 | 97 | 1013.0 |
| 20260903101021 | 76 | 0 | 0.0 | 0.0 | 0.00 | 0.04 | 0.01 | 97 | 1013.0 |
| 20260903100524 | 76 | 0 | 0.0 | 0.0 | 0.00 | 0.04 | 0.01 | 97 | 1013.0 |
| 20260903100049 | 76 | 0 | 0.0 | 0.0 | 0.00 | 0.04 | 0.01 | 97 | 1013.0 |
| 20260903095523 | 76 | 0 | 0.0 | 0.0 | 0.00 | 0.04 | 0.01 | 97 | 1013.1 |
| 20260903095022 | 76 | 0 | 0.0 | 0.0 | 0.00 | 0.04 | 0.01 | 97 | 1013.1 |
| 20260903094549 | 76 | 0 | 0.0 | 0.0 | 0.00 | 0.04 | 0.01 | 97 | 1013.1 |
| 20260903094024 | 76 | 0 | 0.0 | 2.0 | 0.00 | 0.04 | 0.01 | 97 | 1013.0 |
| 20260903093523 | 76 | 0 | 0.0 | 2.0 | 0.00 | 0.04 | 0.01 | 97 | 1013.1 |
| 20260903093048 | 75 | 0 | 0.0 | 0.0 | 0.00 | 0.04 | 0.01 | 97 | 1013.1 |
| 20260903092518 | 76 | 0 | 0.0 | 0.0 | 0.00 | 0.04 | 0.01 | 97 | 1013.1 |
| 20260903092027 | 76 | 0 | 0.0 | 0.0 | 0.00 | 0.04 | 0.01 | 96 | 1013.1 |
| 20260903091549 | 76 | 0 | 0.0 | 0.0 | 0.00 | 0.04 | 0.01 | 96 | 1013.0 |
| 20260903091025 | 76 | 0 | 0.0 | 1.0 | 0.00 | 0.04 | 0.01 | 96 | 1013.0 |
| 20260903090521 | 76 | 0 | 0.0 | 1.0 | 0.00 | 0.04 | 0.01 | 96 | 1012.9 |
| 20260903090048 | 76 | 0 | 0.0 | 1.0 | 0.00 | 0.04 | 0.01 | 96 | 1012.9 |
| 20260903085524 | 76 | 42 | 0.0 | 2.0 | 0.00 | 0.04 | 0.01 | 96 | 1012.9 |
| 20260903085022 | 76 | 0 | 0.0 | 3.0 | 0.00 | 0.04 | 0.01 | 96 | 1012.8 |
| 20260903084546 | 76 | 30 | 0.0 | 3.0 | 0.00 | 0.04 | 0.01 | 97 | 1012.8 |
| 20260903084019 | 76 | 53 | 1.0 | 3.0 | 0.00 | 0.04 | 0.01 | 97 | 1012.8 |
| 20260903083525 | 76 | 49 | 0.0 | 2.0 | 0.00 | 0.04 | 0.01 | 97 | 1012.8 |
| 20260903083057 | 76 | 49 | 0.0 | 3.0 | 0.00 | 0.04 | 0.01 | 97 | 1012.8 |
| 20260903082529 | 76 | 49 | 0.0 | 3.0 | 0.00 | 0.04 | 0.01 | 97 | 1012.8 |
| 20260903082024 | 76 | 0 | 0.0 | 2.0 | 0.00 | 0.04 | 0.01 | 97 | 1012.8 |
| 20260903081606 | 76 | 0 | 0.0 | 3.0 | 0.00 | 0.04 | 0.01 | 97 | 1012.8 |
| 20260903081027 | 76 | 0 | 0.0 | 3.0 | 0.00 | 0.04 | 0.01 | 97 | 1012.8 |
| 20260903080531 | 76 | 74 | 0.0 | 3.0 | 0.00 | 0.04 | 0.01 | 97 | 1012.9 |
| 20260903080049 | 76 | 0 | 0.0 | 2.0 | 0.00 | 0.04 | 0.01 | 97 | 1012.9 |
| 20260903075528 | 76 | 0 | 0.0 | 2.0 | 0.00 | 0.05 | 0.01 | 97 | 1012.9 |
| 20260903075019 | 76 | 0 | 0.0 | 3.0 | 0.00 | 0.05 | 0.01 | 96 | 1012.9 |
| 20260903074547 | 76 | 48 | 0.0 | 3.0 | 0.00 | 0.05 | 0.01 | 96 | 1013.0 |
| 20260903074026 | 76 | 53 | 1.0 | 3.0 | 0.00 | 0.05 | 0.01 | 96 | 1013.0 |
| 20260903073525 | 76 | 46 | 0.0 | 3.0 | 0.00 | 0.05 | 0.01 | 96 | 1013.0 |
| 20260903073041 | 76 | 0 | 0.0 | 3.0 | 0.00 | 0.05 | 0.01 | 96 | 1013.1 |
| 20260903072524 | 76 | 35 | 0.0 | 3.0 | 0.00 | 0.05 | 0.01 | 96 | 1013.1 |
| 20260903072027 | 76 | 0 | 0.0 | 3.0 | 0.00 | 0.05 | 0.01 | 96 | 1013.2 |
| 20260903071549 | 76 | 0 | 0.0 | 3.0 | 0.00 | 0.05 | 0.01 | 96 | 1013.2 |
| 20260903071025 | 76 | 43 | 0.0 | 3.0 | 0.00 | 0.05 | 0.01 | 96 | 1013.2 |
| 20260903070523 | 76 | 0 | 0.0 | 2.0 | 0.00 | 0.05 | 0.01 | 96 | 1013.2 |
| 20260903070042 | 76 | 47 | 1.0 | 3.0 | 0.00 | 0.05 | 0.01 | 96 | 1013.2 |
| 20260903065523 | 76 | 0 | 0.0 | 3.0 | 0.00 | 0.05 | 0.01 | 96 | 1013.3 |
| 20260903065024 | 76 | 40 | 1.0 | 3.0 | 0.00 | 0.05 | 0.01 | 96 | 1013.2 |
| 20260903064547 | 76 | 36 | 1.0 | 3.0 | 0.00 | 0.05 | 0.01 | 96 | 1013.4 |
| 20260903064024 | 76 | 0 | 0.0 | 4.0 | 0.00 | 0.05 | 0.01 | 96 | 1013.3 |
| 20260903063522 | 76 | 55 | 1.0 | 4.0 | 0.00 | 0.05 | 0.01 | 96 | 1013.4 |
| 20260903063051 | 76 | 49 | 1.0 | 3.0 | 0.00 | 0.05 | 0.01 | 96 | 1013.6 |
| 20260903062521 | 77 | 42 | 0.0 | 2.0 | 0.00 | 0.05 | 0.01 | 96 | 1013.5 |
| 20260903062024 | 77 | 0 | 0.0 | 3.0 | 0.00 | 0.05 | 0.01 | 96 | 1013.6 |
| 20260903061544 | 77 | 0 | 0.0 | 3.0 | 0.00 | 0.05 | 0.01 | 96 | 1013.6 |
| 20260903061023 | 77 | 0 | 1.0 | 3.0 | 0.00 | 0.05 | 0.01 | 96 | 1013.7 |
| 20260903060524 | 77 | 51 | 1.0 | 3.0 | 0.00 | 0.05 | 0.01 | 96 | 1013.7 |
| 20260903060044 | 77 | 0 | 0.0 | 4.0 | 0.00 | 0.05 | 0.01 | 96 | 1013.7 |
| 20260903055524 | 77 | 53 | 0.0 | 4.0 | 0.00 | 0.05 | 0.01 | 96 | 1013.7 |
| 20260903055025 | 77 | 38 | 1.0 | 4.0 | 0.00 | 0.05 | 0.01 | 96 | 1013.7 |
| 20260903054555 | 77 | 27 | 1.0 | 4.0 | 0.00 | 0.05 | 0.01 | 96 | 1013.7 |
| 20260903054024 | 77 | 55 | 2.0 | 4.0 | 0.00 | 0.05 | 0.01 | 96 | 1013.8 |
| 20260903053521 | 77 | 47 | 1.0 | 3.0 | 0.00 | 0.05 | 0.01 | 96 | 1013.8 |
| 20260903053041 | 77 | 57 | 0.0 | 3.0 | 0.00 | 0.05 | 0.01 | 96 | 1014.0 |
| 20260903052524 | 77 | 50 | 1.0 | 3.0 | 0.00 | 0.05 | 0.01 | 96 | 1014.0 |
| 20260903052025 | 77 | 44 | 1.0 | 3.0 | 0.01 | 0.05 | 0.01 | 96 | 1014.1 |
| 20260903051542 | 77 | 49 | 1.0 | 3.0 | 0.01 | 0.05 | 0.01 | 96 | 1014.0 |
| 20260903051024 | 77 | 47 | 1.0 | 3.0 | 0.01 | 0.05 | 0.01 | 96 | 1014.2 |
| 20260903050525 | 77 | 50 | 1.0 | 3.0 | 0.01 | 0.05 | 0.01 | 96 | 1014.2 |
| 20260903050049 | 77 | 57 | 1.0 | 3.0 | 0.01 | 0.05 | 0.01 | 96 | 1014.2 |
| 20260903045527 | 77 | 45 | 1.0 | 3.0 | 0.01 | 0.05 | 0.01 | 96 | 1014.3 |
| 20260903045023 | 77 | 70 | 1.0 | 3.0 | 0.01 | 0.05 | 0.01 | 96 | 1014.3 |
| 20260903044547 | 77 | 0 | 0.0 | 3.0 | 0.01 | 0.05 | 0.01 | 96 | 1014.3 |
| 20260903044023 | 77 | 0 | 0.0 | 3.0 | 0.01 | 0.05 | 0.01 | 96 | 1014.4 |
| 20260903043522 | 77 | 71 | 1.0 | 4.0 | 0.01 | 0.05 | 0.01 | 96 | 1014.4 |
| 20260903043042 | 77 | 53 | 2.0 | 4.0 | 0.01 | 0.05 | 0.01 | 96 | 1014.3 |
| 20260903042520 | 77 | 57 | 1.0 | 4.0 | 0.01 | 0.05 | 0.01 | 96 | 1014.4 |
| 20260903042024 | 77 | 65 | 1.0 | 4.0 | 0.00 | 0.04 | 0.00 | 96 | 1014.5 |
| 20260903041551 | 77 | 73 | 2.0 | 4.0 | 0.00 | 0.04 | 0.00 | 96 | 1014.3 |
| 20260903041023 | 77 | 78 | 2.0 | 4.0 | 0.00 | 0.04 | 0.00 | 96 | 1014.4 |
| 20260903040523 | 77 | 30 | 1.0 | 7.0 | 0.00 | 0.04 | 0.00 | 96 | 1014.3 |